ONEWEB-0050 (45453 NORAD) Tracking and Keplerian Element Data

This shows tracking and keplerian element data for the satellite.

Feedback or suggestion? Click here.




ElementValue
Catalog45453
NameONEWEB-0050
Epoch Orbit1632
Epoch Day190.25001157
Epoch Year2020
RAAN103.7114
Inclination87.5421
Eccentricity0.0023227
Argument of Perigee267.8838
Mean Anonmoly11.9628
Mean Motion14.94807713
Decay Rate0.00013984
L11 45453U 20020AF 20190.25001157 .00013984 00000-0 12755-2 0 9995
L22 45453 87.5421 103.7114 0023227 267.8838 11.9628 14.94807713 16328

Live tracking and technical data element details for ONEWEB-0050 (NORAD 45453). ONEWEB-0050 can be tracked NOW for your location showing map with azimuth and elevation plus other details from your city location.

Track the satellite on the map from your city or location and see movement details for azimuth, elevation, latitude, longitude, range, height, and movement on the map or in text.







IsCatalogInMostPopularTable: catalog: 45453, numindb: 21
Update: records affected: 1



GetName: 45453 ONEWEB-0050

Hit Count: updated at: Thu, 09 Jul 2020 01:59:19 GMT